sat.trackr.live / text

‹ back to catalog

IRIDIUM 162

NORAD 43482 · 2018-047G

PAYLOAD ACTIVE UNKNOWN

§ Identity

Operator
Country
US
Launch date
2018-05-22
Launch site
AFWTR
Launch vehicle
Mass (kg)
RCS (m²)

Purposes: comms

External: N2YO · Heavens-Above · Gunter

§ Orbital elements

Epoch: 2026-09-19T17:31:07.268736Z

Period
99.77 min
Inclination
86.4471°
Eccentricity
0.0002352
Mean motion
14.43275392 rev/d
Perigee alt
746.0 km
Apogee alt
749.4 km
Semi-major
7,125.8 km
B*
5.8357e-5
RAAN
48.7950°
Arg perigee
93.2418°
Mean anomaly
266.9052°
Rev number
43,876

§ Raw data

IRIDIUM 1621 43482U 18047G   26262.72994524  .00000216  00000+0  58357-4 0  99912 43482  86.4471  48.7950 0002352  93.2418 266.9052 14.43275392438763

JSON: /api/v1/satellites/43482 · /tle

For live sub-satellite position, see the globe view (requires WebGL).

§ Visibility from observer

Set your observer location to see the next 7 days of passes ≥ 10°. The values pass through the URL so the page stays shareable.

No JS? Fill the form by hand. The geolocation button needs JavaScript.